• In Belarus
  • List of Countries
  • For 7 days
  • Water Temperature
  • Satellite Maps
  • Weather Map
  • Weather Widgets
  • user-avatar
    Login

    Hourly Weather Ioannina

    Today, 15 December, Saturday

    Time Temperature Precipitation Wind Pressure Humidity
    00:00 +5°C° 0 mm 2 mps 684 mmHg 90%
    01:00 +5°C° 0 mm 2 mps 684 mmHg 88%
    02:00 +5°C° 0.1 mm 2 mps 684 mmHg 88%
    03:00 +5°C° 0.1 mm 2 mps 684 mmHg 88%
    04:00 +5°C° 0.1 mm 2 mps 684 mmHg 88%
    05:00 +5°C° 0.2 mm 2 mps 684 mmHg 88%
    06:00 +5°C° 0.2 mm 2 mps 684 mmHg 88%
    07:00 +5°C° 0 mm 2 mps 683 mmHg 89%
    08:00 +6°C° 0.3 mm 2 mps 684 mmHg 87%
    09:00 +7°C° 0.3 mm 2 mps 684 mmHg 86%
    10:00 +7°C° 0.3 mm 2 mps 684 mmHg 84%
    11:00 +8°C° 0.2 mm 2 mps 684 mmHg 80%
    12:00 +9°C° 0.2 mm 2 mps 684 mmHg 76%
    13:00 +9°C° 0 mm 2 mps 684 mmHg 75%
    14:00 +9°C° 0.3 mm 2 mps 683 mmHg 78%
    15:00 +9°C° 0.3 mm 1 mps 683 mmHg 82%
    16:00 +8°C° 0.3 mm 1 mps 683 mmHg 85%
    17:00 +8°C° 0.1 mm 1 mps 683 mmHg 85%
    18:00 +7°C° 0.1 mm 1 mps 683 mmHg 86%
    19:00 +6°C° 0.1 mm 2 mps 682 mmHg 86%
    20:00 +7°C° 0.1 mm 1 mps 682 mmHg 85%
    21:00 +7°C° 0.1 mm 1 mps 682 mmHg 85%
    22:00 +7°C° 0.1 mm 1 mps 682 mmHg 84%
    23:00 +6°C° 0.6 mm 1 mps 682 mmHg 84%

    Tomorrow, 16 December, Sunday

    Time Temperature Precipitation Wind Pressure Humidity
    00:00 +6°C° 0.6 mm 1 mps 682 mmHg 84%
    01:00 +6°C° 0.6 mm 1 mps 682 mmHg 85%
    02:00 +6°C° 0.8 mm 1 mps 682 mmHg 85%
    03:00 +6°C° 0.8 mm 1 mps 682 mmHg 86%
    04:00 +5°C° 0.8 mm 2 mps 682 mmHg 87%
    05:00 +4°C° 0.1 mm 2 mps 682 mmHg 87%
    06:00 +4°C° 0.1 mm 2 mps 683 mmHg 88%
    07:00 +4°C° 0.1 mm 2 mps 683 mmHg 88%
    08:00 +5°C° 0 mm 2 mps 683 mmHg 85%
    09:00 +6°C° 0 mm 2 mps 684 mmHg 82%
    10:00 +7°C° 0 mm 3 mps 684 mmHg 79%
    11:00 +7°C° 0 mm 3 mps 684 mmHg 76%
    12:00 +7°C° 0 mm 3 mps 684 mmHg 74%
    13:00 +7°C° 0 mm 3 mps 684 mmHg 72%
    14:00 +7°C° 0 mm 3 mps 684 mmHg 74%
    15:00 +5°C° 0 mm 3 mps 685 mmHg 76%
    16:00 +4°C° 0 mm 3 mps 685 mmHg 77%
    17:00 +3°C° 0 mm 3 mps 685 mmHg 79%
    18:00 +3°C° 0 mm 2 mps 685 mmHg 81%
    19:00 +2°C° 0 mm 2 mps 686 mmHg 83%
    20:00 +2°C° 0 mm 2 mps 686 mmHg 82%
    21:00 +1°C° 0 mm 2 mps 686 mmHg 82%
    22:00 +1°C° 0 mm 2 mps 686 mmHg 81%
    23:00 +2°C° 0 mm 1 mps 686 mmHg 80%

    Day after tomorrow, 17 December, Monday

    Time Temperature Precipitation Wind Pressure Humidity
    00:00 +2°C° 0 mm 1 mps 686 mmHg 78%
    01:00 +2°C° 0 mm 1 mps 686 mmHg 77%
    02:00 +2°C° 0 mm 1 mps 686 mmHg 74%
    03:00 +2°C° 0 mm 1 mps 686 mmHg 72%
    04:00 +2°C° 0 mm 1 mps 686 mmHg 69%
    05:00 +3°C° 0 mm 1 mps 686 mmHg 67%
    06:00 +3°C° 0 mm 1 mps 686 mmHg 65%
    07:00 +3°C° 0 mm 1 mps 686 mmHg 63%
    08:00 +4°C° 0 mm 1 mps 686 mmHg 59%
    09:00 +6°C° 0 mm 1 mps 687 mmHg 55%
    10:00 +7°C° 0 mm 1 mps 687 mmHg 51%
    11:00 +6°C° 0.1 mm 2 mps 686 mmHg 54%
    12:00 +6°C° 0.1 mm 2 mps 686 mmHg 57%
    13:00 +6°C° 0.1 mm 2 mps 685 mmHg 60%
    14:00 +5°C° 0.2 mm 2 mps 685 mmHg 66%
    15:00 +5°C° 0.2 mm 2 mps 684 mmHg 72%
    16:00 +4°C° 0.2 mm 2 mps 684 mmHg 78%
    17:00 +4°C° 0.5 mm 2 mps 684 mmHg 80%
    18:00 +3°C° 0.5 mm 3 mps 684 mmHg 83%
    19:00 +3°C° 0.5 mm 3 mps 683 mmHg 86%
    20:00 +3°C° 1.1 mm 3 mps 683 mmHg 88%
    21:00 +4°C° 1.1 mm 2 mps 683 mmHg 89%
    22:00 +4°C° 1.1 mm 2 mps 683 mmHg 90%
    23:00 +4°C° 1.2 mm 2 mps 683 mmHg 91%

    18 December, Tuesday

    Time Temperature Precipitation Wind Pressure Humidity
    00:00 +4°C° 1.2 mm 2 mps 683 mmHg 91%
    01:00 +4°C° 1.2 mm 2 mps 683 mmHg 92%
    02:00 +3°C° 0.8 mm 2 mps 683 mmHg 92%
    03:00 +3°C° 0.8 mm 2 mps 682 mmHg 92%
    04:00 +3°C° 0.8 mm 2 mps 682 mmHg 92%
    05:00 +3°C° 0.5 mm 2 mps 683 mmHg 91%
    06:00 +2°C° 0.5 mm 2 mps 683 mmHg 91%
    07:00 +2°C° 0.5 mm 2 mps 683 mmHg 90%
    08:00 +3°C° 0.3 mm 2 mps 684 mmHg 88%
    09:00 +3°C° 0.3 mm 2 mps 684 mmHg 87%
    10:00 +4°C° 0.3 mm 2 mps 685 mmHg 85%
    11:00 +4°C° 0.2 mm 2 mps 685 mmHg 84%
    12:00 +5°C° 0.2 mm 2 mps 685 mmHg 82%
    13:00 +5°C° 0.2 mm 2 mps 685 mmHg 81%
    14:00 +5°C° 0.1 mm 2 mps 685 mmHg 82%
    15:00 +4°C° 0.1 mm 2 mps 685 mmHg 83%
    16:00 +4°C° 0.1 mm 2 mps 686 mmHg 85%
    17:00 +3°C° 0 mm 2 mps 686 mmHg 85%
    18:00 +2°C° 0 mm 2 mps 687 mmHg 86%
    19:00 +1°C° 0 mm 2 mps 687 mmHg 86%
    20:00 +1°C° 0 mm 2 mps 687 mmHg 85%
    21:00 +1°C° 0 mm 2 mps 687 mmHg 85%
    22:00 +1°C° 0 mm 2 mps 688 mmHg 84%
    23:00 -1°C° 0 mm 2 mps 688 mmHg 84%

    19 December, Wednesday

    Time Temperature Precipitation Wind Pressure Humidity
    00:00 -1°C° 0 mm 2 mps 688 mmHg 83%
    01:00 -1°C° 0 mm 2 mps 688 mmHg 83%
    02:00 +1°C° 0 mm 1 mps 688 mmHg 83%
    03:00 +1°C° 0 mm 1 mps 688 mmHg 83%
    04:00 +1°C° 0 mm 1 mps 688 mmHg 82%
    05:00 +1°C° 0 mm 1 mps 688 mmHg 82%
    06:00 +1°C° 0 mm 1 mps 688 mmHg 82%
    07:00 +1°C° 0 mm 1 mps 688 mmHg 82%
    08:00 +3°C° 0 mm 1 mps 689 mmHg 79%
    09:00 +5°C° 0 mm 1 mps 690 mmHg 75%
    10:00 +6°C° 0 mm 0 mps 690 mmHg 72%
    11:00 +7°C° 0 mm 1 mps 690 mmHg 70%
    12:00 +8°C° 0 mm 1 mps 690 mmHg 69%
    13:00 +8°C° 0 mm 1 mps 690 mmHg 67%
    14:00 +7°C° 0 mm 1 mps 690 mmHg 71%
    15:00 +6°C° 0 mm 1 mps 689 mmHg 75%
    16:00 +5°C° 0 mm 1 mps 689 mmHg 79%
    17:00 +4°C° 0 mm 1 mps 690 mmHg 82%
    18:00 +4°C° 0 mm 1 mps 690 mmHg 84%
    19:00 +3°C° 0 mm 1 mps 690 mmHg 86%
    20:00 +2°C° 0 mm 1 mps 690 mmHg 86%
    21:00 +2°C° 0 mm 1 mps 691 mmHg 87%
    22:00 +1°C° 0 mm 1 mps 691 mmHg 88%
    23:00 +1°C° 0 mm 1 mps 691 mmHg 87%

    20 December, Thursday

    Time Temperature Precipitation Wind Pressure Humidity
    00:00 -1°C° 0 mm 2 mps 691 mmHg 85%
    01:00 -2°C° 0 mm 2 mps 691 mmHg 84%
    02:00 -2°C° 0 mm 2 mps 691 mmHg 82%
    03:00 -2°C° 0 mm 2 mps 691 mmHg 80%
    04:00 -2°C° 0 mm 2 mps 691 mmHg 78%
    05:00 -2°C° 0 mm 2 mps 691 mmHg 76%
    06:00 -2°C° 0 mm 2 mps 691 mmHg 74%
    07:00 -2°C° 0 mm 2 mps 692 mmHg 73%
    08:00 +1°C° 0 mm 2 mps 692 mmHg 68%
    09:00 +3°C° 0 mm 2 mps 693 mmHg 64%
    10:00 +6°C° 0 mm 1 mps 693 mmHg 60%
    11:00 +6°C° 0 mm 2 mps 693 mmHg 59%
    12:00 +6°C° 0 mm 2 mps 693 mmHg 59%
    13:00 +7°C° 0 mm 2 mps 693 mmHg 58%
    14:00 +6°C° 0 mm 2 mps 693 mmHg 64%
    15:00 +5°C° 0 mm 2 mps 692 mmHg 69%
    16:00 +3°C° 0 mm 2 mps 692 mmHg 75%
    17:00 +3°C° 0 mm 2 mps 692 mmHg 76%
    18:00 +2°C° 0 mm 2 mps 692 mmHg 77%
    19:00 +2°C° 0 mm 2 mps 692 mmHg 77%
    20:00 +1°C° 0 mm 2 mps 692 mmHg 77%
    21:00 +1°C° 0 mm 2 mps 692 mmHg 76%
    22:00 +1°C° 0 mm 2 mps 692 mmHg 75%
    23:00 +1°C° 0 mm 2 mps 692 mmHg 76%
    Show more